Location: Ertinghausen
(51.6624°N, 9.7874°E)
Time: 16:43:06
(UTC+00:00)

CZ-2D R/B - Pass Details

Date: 23 May 2024
Orbit: 790 x 843 km, 98.8° (Epoch: 24 June)

Event Time Altitude Azimuth Distance (km) Brightness Sun altitude
Rises 01:49:36 0° 14° (NNE) 3,416 6.8 -10.4°
Reaches altitude 10° 01:51:59 10° 13° (NNE) 2,475 5.8 -10.2°
Maximum altitude 01:57:28 74° 289° (WNW) 877 2.3 -9.7°
Enters shadow 02:02:44 11° 206° (SSW) 2,389 3.9 -9.2°
